This is the latest recevied weather packets stored in our database for station/object YO4TNV-15. If no packets are shown the sender has not sent any weather packets the latest 10 day(s).
| Time | Temp. | Humidity | Pressure | Rain* | Wind** | Luminosity | Snow |
|---|---|---|---|---|---|---|---|
| 1777812740 | 17.22° C | 25% | 1006.8 hPa | - | - | - | - |
| 1777812731 | 17.22° C | 25% | 1006.8 hPa | - | - | - | - |
| 1777811840 | 18.89° C | 24% | 1007 hPa | - | - | - | - |
| 1777811831 | 18.89° C | 24% | 1007 hPa | - | - | - | - |
| 1777810940 | 17.78° C | 24% | 1007.3 hPa | - | - | - | - |
| 1777810931 | 17.78° C | 24% | 1007.3 hPa | - | - | - | - |
| 1777810040 | 18.33° C | 24% | 1007.3 hPa | - | - | - | - |
| 1777810031 | 18.33° C | 24% | 1007.3 hPa | - | - | - | - |
| 1777809139 | 17.78° C | 24% | 1007.4 hPa | - | - | - | - |
| 1777809131 | 17.78° C | 24% | 1007.4 hPa | - | - | - | - |
| 1777808240 | 17.78° C | 25% | 1007.7 hPa | - | - | - | - |
| 1777808230 | 17.78° C | 25% | 1007.7 hPa | - | - | - | - |
| 1777807340 | 18.33° C | 25% | 1007.9 hPa | - | - | - | - |
| 1777807330 | 18.33° C | 25% | 1007.9 hPa | - | - | - | - |
| 1777806439 | 17.78° C | 25% | 1008.2 hPa | - | - | - | - |
| 1777806430 | 17.78° C | 25% | 1008.2 hPa | - | - | - | - |
| 1777805539 | 17.78° C | 25% | 1008.4 hPa | - | - | - | - |
| 1777805530 | 17.78° C | 25% | 1008.4 hPa | - | - | - | - |
| 1777804639 | 16.11° C | 26% | 1008.6 hPa | - | - | - | - |
| 1777804630 | 16.11° C | 26% | 1008.6 hPa | - | - | - | - |
| 1777803739 | 19.44° C | 22% | 1008.8 hPa | - | - | - | - |
| 1777803729 | 19.44° C | 22% | 1008.8 hPa | - | - | - | - |
| 1777802839 | 19.44° C | 25% | 1008.9 hPa | - | - | - | - |
| 1777802829 | 19.44° C | 25% | 1008.9 hPa | - | - | - | - |
| 1777801939 | 18.33° C | 25% | 1009 hPa | - | - | - | - |
* Rain since midnight (hover to see other rain measurements)
** Current wind speed in m/s (hover to see current wind gust speed)